Regional Weather Roundup
Issued by NWS

Home | Current Version | Previous Version | Graphics & Text | Print | Product List | Glossary On
Versions: 1 2 3 4 5 6 7 8 9 10 11 12 13 14 15 16 17 18 19 20 21 22 23 24 25 26 27
000
ASUS45 KTFX 221710
RWRMT
MONTANA REGIONAL WEATHER ROUNDUP
NATIONAL WEATHER SERVICE GREAT FALLS MT
1100 AM MDT SUN OCT 22 2017

NOTE: "FAIR" INDICATES FEW OR NO CLOUDS BELOW 12000 FEET WITH NO
SIGNIFICANT WEATHER AND/OR OBSTRUCTIONS TO VISIBILITY.

MTZ001>007-043-221800-
WEST OF THE DIVIDE

CITY           SKY/WX    TMP DP  RH WIND       PRES   REMARKS
KALISPELL      RAIN      46  44  93 SW10      29.80R FOG
MISSOULA       LGT RAIN  49  43  80 SW8       29.91R
BUTTE          CLOUDY    51  36  56 SW8G20    29.99S
MULLAN PASS    RAIN      34  33  96 NW15G37   29.87R VSB 1/2 WCI  24
ANACONDA         N/A     46  36  66 S24G33    29.94R
DEER LODGE       N/A     52  36  54 S15G23    29.91F
EUREKA           N/A     52  41  66 MISG      29.75R
HAMILTON         N/A     48  43  81 S5        29.95R
LIBBY            N/A     43  43 100 W5G20     29.79R
PLAINS           N/A     47  43  86 CALM      29.87R
$$

MTZ008-052>055-221800-
SOUTHWEST MONTANA

CITY           SKY/WX    TMP DP  RH WIND       PRES   REMARKS
BOZEMAN        CLOUDY    57  31  37 SW30G44   29.92F
DILLON         CLOUDY    54  31  41 SW24G36   30.02S
W YELLOWSTONE  MIX PCPN  36  34  93 SW20G30   30.18R WCI  25
ENNIS          CLOUDY    50  32  50 S23G32    30.09S
$$

MTZ009-010-012-014-046-048-049-054-221800-
EAST SLOPES AND CENTRAL MONTANA

CITY           SKY/WX    TMP DP  RH WIND       PRES   REMARKS
CUT BANK       MOSUNNY   51  36  56 W30G39    29.65F
GREAT FALLS    CLOUDY    56  36  47 SW41G51   29.73S
MALMSTROM AFB  MOSUNNY   57  37  47 SW40G54   29.74R
HELENA         CLOUDY    57  37  47 W17G26    29.87R
BOWMANS CRNR     N/A     49  38  64 SW26G37   29.76S
CHOTEAU          N/A     48  39  71 SW23G32   29.76R
FAIRFIELD      LGT RAIN  49  38  66 SW22G43   29.75R
POWER            N/A     52  36  55 SW31G44   29.72R
RAYNESFORD     PTSUNNY   57  33  40 W31G47    29.74S
ULM            PTSUNNY   57  37  46 W33G46    29.77R
$$

MTZ011-013-016-021-045-047-050-051-221800-
NORTH CENTRAL MONTANA

CITY           SKY/WX    TMP DP  RH WIND       PRES   REMARKS
HAVRE          MOSUNNY   59  37  44 SW33G39   29.58S
LEWISTOWN      CLOUDY    57  33  40 SW32G43   29.76R
N BAR RANCH      N/A     59  30  33 W24G35    29.77S
CHINOOK          N/A     57  37  47 SW26G38   29.59S
DENTON           N/A     59  33  37 W35       29.66F
GEYSER         PTSUNNY   57  32  39 W31G44    29.73R
GRASS RANGE    CLOUDY    59  32  36 W32G48    29.69R
JUDITH GAP       N/A     55  33  44 W33G45    29.80R
WINIFRED       PTSUNNY   58  34  40 W24G39    29.68F
$$

MTZ017>020-022>027-061-062-221800-
NORTHEAST MONTANA

CITY           SKY/WX    TMP DP  RH WIND       PRES   REMARKS
GLASGOW        LGT RAIN  50  40  68 W6        29.62F
JORDAN           N/A     61  32  33 SW28G36   29.66F
SIDNEY         CLOUDY    50  26  39 SW17      29.69F
WOLF POINT     LGT RAIN  49  36  61 W6        29.64F
MALTA          SUNNY     55  37  50 W13G20    29.60F
PLENTYWOOD       N/A     39  30  70 CALM      29.62F
POPLAR           N/A     50  34  53 SW10      29.65F
SCOBEY           N/A     44  25  47 SE10      29.59
$$

MTZ028>42-056>058-221800-
SOUTHCENTRAL AND SOUTHEAST MONTANA

CITY           SKY/WX    TMP DP  RH WIND       PRES   REMARKS
BAKER          CLOUDY    55  27  34 SW21G31   29.78F
BILLINGS       CLOUDY    57  30  35 SW12      29.85F
LIVINGSTON     CLOUDY    56  32  40 SW38G60   29.87R
MILES CITY     PTSUNNY   58  32  37 SW14      29.76S
BIG TIMBER     SUNNY     59  30  33 W33G46    29.87F
EKALAKA          N/A     54  21  27 SW13      29.81
FORSYTH          N/A     61  27  27 SW20G28   29.76S
HARLOWTON        N/A     58  31  36 W36G54    29.81R
LAUREL           N/A     59  27  29 SW21G33   29.85F
$$

REGIONAL REPORTS...DAKOTAS

CITY           SKY/WX    TMP DP  RH WIND       PRES   REMARKS
WILLISTON      LGT RAIN  43  29  57 SW7       29.69F
MINOT          CLOUDY    51  30  44 S13       29.69F
DICKINSON      LGT RAIN  55  26  32 SW22      29.74F
BEACH          CLOUDY    54  25  32 W20G28    29.76F
CROSBY         PTSUNNY   43  28  56 SW18      29.63F
TIOGA          CLOUDY    43  27  52 SW13G21   29.68S
BISMARCK       SUNNY     56  28  34 SW9       29.81F
GRAND FORKS    MOSUNNY   58  33  39 SW16G24   29.81F
FARGO          SUNNY     56  35  45 SW12      29.88F
BUFFALO SD       N/A     60  23  24 SW22      29.76F
RAPID CITY     SUNNY     57  23  26 S8        29.93F
$$

REGIONAL REPORTS...WYOMING/IDAHO/WASHINGTON

CITY           SKY/WX    TMP DP  RH WIND       PRES   REMARKS
GILLETTE       CLOUDY    56  25  30 SW24G36   29.93F
SHERIDAN       CLOUDY    63  29  27 W14G26    29.88S
BUFFALO WY     CLOUDY    61  23  23 SE8       29.93F
CODY           CLOUDY    55  30  38 VRB5G32   30.01R
YELLOWSTONE LA   N/A     34  33  96 W10G28    30.18F WCI  26
IDAHO FALLS    CLOUDY    51  35  54 SW28G36   30.25R
SALMON         CLOUDY    58  37  45 SW16G22   30.06S
BOISE          CLOUDY    50  41  71 SE14      30.26R
SPOKANE        MOSUNNY   50  39  66 W29G38    29.95R
$$

REGIONAL REPORTS...ALBERTA

CITY           SKY/WX    TMP DP  RH WIND       PRES   REMARKS
EDMONTON       CLOUDY    36  28  75 NW3       29.44R
CALGARY        MOSUNNY   54  23  30 W24G32    29.48R
LETHBRIDGE     PTSUNNY   54  37  54 SW38G53   29.51S
MEDICINE HAT   PTSUNNY   57  37  47 SW29G38   29.47F
$$

REGIONAL REPORTS...SASKATCHEWAN

CITY           SKY/WX    TMP DP  RH WIND       PRES   REMARKS
SWIFT CURRENT  MOSUNNY   55  36  47 W33G41    29.42F
REGINA         LGT RAIN  39  32  75 SE13      29.49F WCI  32
SASKATOON      LGT RAIN  36  32  87 E3        29.45F
$$




USA.gov is the U.S. government's official web portal to all federal, state and local government web resources and services.